DHX683 TFFR-TNCM

Flight info

Callsign DHX683
Flight time 0h 34m
Altitude 24000
Route BIMBO2F BIMBO A517 SKB DCT ZPATA A517 PJM
Aircraft B738/M-SDE2E3FGHIRWXY/LB1

Departure

Time 2026-05-08 14:58
Airport Maryse Condé International Airport (TFFR)

Arrival

Time 2026-05-08 15:32
Airport Princess Juliana International Airport (TNCM)
Time Latitude Longitude Altitude Speed Heading
2026-05-08 14:49 16.26760 -61.52094 46 ft 0 kts 66°
2026-05-08 14:55 16.26761 -61.52094 46 ft 1 kts 64°
2026-05-08 14:55 16.26790 -61.52100 46 ft 8 kts 304°
2026-05-08 14:55 16.26750 -61.52208 42 ft 26 kts 263°
2026-05-08 14:55 16.26780 -61.52447 38 ft 42 kts 279°
2026-05-08 14:56 16.26835 -61.52749 34 ft 39 kts 281°
2026-05-08 14:56 16.26737 -61.52932 33 ft 30 kts 195°
2026-05-08 14:56 16.26524 -61.53011 33 ft 32 kts 235°
2026-05-08 14:56 16.26539 -61.53226 37 ft 31 kts 279°
2026-05-08 14:57 16.26594 -61.53469 40 ft 37 kts 279°
2026-05-08 14:57 16.26655 -61.53754 43 ft 37 kts 285°
2026-05-08 14:57 16.26699 -61.54042 41 ft 42 kts 276°
2026-05-08 14:57 16.26727 -61.54318 37 ft 31 kts 250°
2026-05-08 14:58 16.26752 -61.54381 37 ft 14 kts 92°
2026-05-08 14:58 16.26686 -61.54022 42 ft 106 kts 96°
2026-05-08 14:58 16.26458 -61.52927 223 ft 189 kts 98°
2026-05-08 14:58 16.26193 -61.51504 1261 ft 225 kts 98°
2026-05-08 14:59 16.25861 -61.49888 2665 ft 247 kts 97°
2026-05-08 14:59 16.25982 -61.46301 4938 ft 269 kts 85°
2026-05-08 14:59 16.25583 -61.44369 5939 ft 282 kts 107°
2026-05-08 15:00 16.24883 -61.42468 6777 ft 285 kts 102°
2026-05-08 15:00 16.24667 -61.40439 7637 ft 287 kts 81°
2026-05-08 15:00 16.25220 -61.38422 8534 ft 299 kts 60°
2026-05-08 15:00 16.26479 -61.36721 9404 ft 302 kts 39°
2026-05-08 15:01 16.28300 -61.35588 10268 ft 309 kts 19°
2026-05-08 15:01 16.30420 -61.35210 11151 ft 312 kts 359°
2026-05-08 15:01 16.32583 -61.35652 12022 ft 321 kts 339°
2026-05-08 15:01 16.34507 -61.36870 12879 ft 328 kts 319°
2026-05-08 15:02 16.36016 -61.38672 13724 ft 336 kts 307°
2026-05-08 15:02 16.37373 -61.40685 14570 ft 341 kts 306°
2026-05-08 15:02 16.38705 -61.42722 15413 ft 347 kts 306°
2026-05-08 15:02 16.40072 -61.44831 15849 ft 354 kts 306°
2026-05-08 15:03 16.41483 -61.46966 16004 ft 359 kts 307°
2026-05-08 15:03 16.42954 -61.49169 16042 ft 381 kts 306°
2026-05-08 15:03 16.44494 -61.51473 16044 ft 386 kts 306°
2026-05-08 15:03 16.46023 -61.53747 16032 ft 386 kts 306°
2026-05-08 15:04 16.47567 -61.56028 16030 ft 385 kts 307°
2026-05-08 15:04 16.49141 -61.58299 16032 ft 386 kts 307°
2026-05-08 15:04 16.50724 -61.60566 16031 ft 387 kts 307°
2026-05-08 15:04 16.52354 -61.62901 16032 ft 396 kts 307°
2026-05-08 15:05 16.53983 -61.65223 16028 ft 399 kts 308°
2026-05-08 15:05 16.55617 -61.67553 16028 ft 398 kts 308°
2026-05-08 15:05 16.57253 -61.69893 16028 ft 399 kts 307°
2026-05-08 15:05 16.58902 -61.72226 16026 ft 397 kts 308°
2026-05-08 15:06 16.60572 -61.74532 16027 ft 398 kts 308°
2026-05-08 15:06 16.62254 -61.76845 16026 ft 398 kts 308°
2026-05-08 15:06 16.63931 -61.79146 16027 ft 398 kts 308°
2026-05-08 15:06 16.65618 -61.81462 16027 ft 398 kts 308°
2026-05-08 15:07 16.67299 -61.83765 16023 ft 398 kts 308°
2026-05-08 15:07 16.68967 -61.86047 16026 ft 398 kts 309°
2026-05-08 15:07 16.70668 -61.88377 16026 ft 398 kts 308°
2026-05-08 15:07 16.72329 -61.90655 16027 ft 398 kts 308°
2026-05-08 15:08 16.74013 -61.92968 16029 ft 398 kts 309°
2026-05-08 15:08 16.75153 -61.94537 16026 ft 399 kts 309°
2026-05-08 15:08 16.77382 -61.97604 16022 ft 399 kts 308°
2026-05-08 15:08 16.79073 -61.99925 15987 ft 399 kts 309°
2026-05-08 15:09 16.80758 -62.02238 16051 ft 399 kts 309°
2026-05-08 15:09 16.82439 -62.04543 16047 ft 400 kts 309°
2026-05-08 15:09 16.84125 -62.06856 16019 ft 399 kts 309°
2026-05-08 15:09 16.85806 -62.09170 16035 ft 399 kts 309°
2026-05-08 15:10 16.87493 -62.11492 16054 ft 399 kts 309°
2026-05-08 15:10 16.89179 -62.13794 16036 ft 399 kts 309°
2026-05-08 15:10 16.90911 -62.16105 16028 ft 407 kts 309°
2026-05-08 15:10 16.92702 -62.18470 16047 ft 410 kts 310°
2026-05-08 15:11 16.94471 -62.20803 16048 ft 411 kts 309°
2026-05-08 15:11 16.96251 -62.23158 16049 ft 411 kts 310°
2026-05-08 15:11 16.98034 -62.25522 16044 ft 412 kts 310°
2026-05-08 15:11 16.99818 -62.27871 16030 ft 411 kts 310°
2026-05-08 15:12 17.01628 -62.30197 16019 ft 410 kts 310°
2026-05-08 15:12 17.03450 -62.32526 16016 ft 412 kts 311°
2026-05-08 15:12 17.05276 -62.34848 16052 ft 412 kts 310°
2026-05-08 15:12 17.07086 -62.37149 16036 ft 411 kts 311°
2026-05-08 15:13 17.08912 -62.39468 16029 ft 408 kts 310°
2026-05-08 15:13 17.10686 -62.41729 16037 ft 390 kts 310°
2026-05-08 15:13 17.12344 -62.43846 16023 ft 372 kts 311°
2026-05-08 15:13 17.13996 -62.45944 15996 ft 369 kts 311°
2026-05-08 15:14 17.15630 -62.48016 16029 ft 372 kts 311°
2026-05-08 15:14 17.17306 -62.50126 16032 ft 373 kts 311°
2026-05-08 15:14 17.19005 -62.52179 15892 ft 374 kts 313°
2026-05-08 15:14 17.20730 -62.54221 15386 ft 375 kts 313°
2026-05-08 15:15 17.22470 -62.56276 14562 ft 375 kts 313°
2026-05-08 15:15 17.24187 -62.58293 13722 ft 375 kts 313°
2026-05-08 15:15 17.25942 -62.60331 12868 ft 374 kts 313°
2026-05-08 15:15 17.27679 -62.62345 12014 ft 372 kts 313°
2026-05-08 15:16 17.29406 -62.64350 11157 ft 371 kts 313°
2026-05-08 15:16 17.31114 -62.66338 10303 ft 369 kts 313°
2026-05-08 15:16 17.32848 -62.68351 9434 ft 366 kts 313°
2026-05-08 15:16 17.34536 -62.70326 8575 ft 364 kts 312°
2026-05-08 15:17 17.36205 -62.72290 7722 ft 362 kts 313°
2026-05-08 15:17 17.37870 -62.74279 6855 ft 360 kts 312°
2026-05-08 15:17 17.39498 -62.76210 6008 ft 359 kts 313°
2026-05-08 15:17 17.41158 -62.78182 5143 ft 357 kts 313°
2026-05-08 15:18 17.42854 -62.80038 4532 ft 345 kts 316°
2026-05-08 15:18 17.44523 -62.81754 4103 ft 325 kts 317°
2026-05-08 15:18 17.46103 -62.83382 3675 ft 310 kts 317°
2026-05-08 15:18 17.47619 -62.84937 3231 ft 298 kts 317°
2026-05-08 15:19 17.49103 -62.86380 2809 ft 287 kts 320°
2026-05-08 15:19 17.50568 -62.87730 2650 ft 270 kts 320°
2026-05-08 15:19 17.51951 -62.89014 2643 ft 263 kts 320°
2026-05-08 15:19 17.53346 -62.90312 2644 ft 269 kts 320°
2026-05-08 15:20 17.54743 -62.91621 2638 ft 268 kts 320°
2026-05-08 15:20 17.56158 -62.92943 2635 ft 267 kts 320°
2026-05-08 15:20 17.57538 -62.94230 2645 ft 269 kts 320°
2026-05-08 15:20 17.58948 -62.95554 2637 ft 268 kts 320°
2026-05-08 15:21 17.60334 -62.96850 2643 ft 269 kts 320°
2026-05-08 15:21 17.61745 -62.98170 2646 ft 266 kts 320°
2026-05-08 15:21 17.63150 -62.99477 2641 ft 267 kts 320°
2026-05-08 15:21 17.64517 -63.00757 2630 ft 256 kts 320°
2026-05-08 15:22 17.65829 -63.01989 2589 ft 253 kts 320°
2026-05-08 15:22 17.67143 -63.03223 2245 ft 256 kts 320°
2026-05-08 15:22 17.68498 -63.04489 1747 ft 256 kts 320°
2026-05-08 15:22 17.69791 -63.05690 1623 ft 244 kts 320°
2026-05-08 15:23 17.71056 -63.06883 1629 ft 246 kts 320°
2026-05-08 15:23 17.72350 -63.08074 1627 ft 240 kts 324°
2026-05-08 15:23 17.73680 -63.09113 1631 ft 237 kts 327°
2026-05-08 15:23 17.75002 -63.10125 1630 ft 231 kts 327°
2026-05-08 15:24 17.76290 -63.11115 1630 ft 226 kts 327°
2026-05-08 15:24 17.77583 -63.12104 1632 ft 229 kts 327°
2026-05-08 15:24 17.78860 -63.13083 1631 ft 227 kts 326°
2026-05-08 15:24 17.80152 -63.14066 1632 ft 229 kts 327°
2026-05-08 15:25 17.81455 -63.15063 1631 ft 227 kts 326°
2026-05-08 15:25 17.82733 -63.16031 1633 ft 226 kts 327°
2026-05-08 15:25 17.84019 -63.16998 1632 ft 226 kts 327°
2026-05-08 15:25 17.85321 -63.17984 1633 ft 228 kts 326°
2026-05-08 15:26 17.86595 -63.18952 1630 ft 226 kts 327°
2026-05-08 15:26 17.87910 -63.19891 1632 ft 225 kts 330°
2026-05-08 15:26 17.89201 -63.20754 1627 ft 214 kts 330°
2026-05-08 15:26 17.90429 -63.21610 1637 ft 206 kts 329°
2026-05-08 15:27 17.91639 -63.22435 1640 ft 207 kts 331°
2026-05-08 15:27 17.92859 -63.23257 1639 ft 206 kts 330°
2026-05-08 15:27 17.94039 -63.24056 1630 ft 198 kts 331°
2026-05-08 15:27 17.95218 -63.24819 1633 ft 194 kts 336°
2026-05-08 15:28 17.96456 -63.25386 1634 ft 194 kts 343°
2026-05-08 15:28 17.97739 -63.25780 1631 ft 190 kts 355°
2026-05-08 15:28 17.99064 -63.25976 1626 ft 191 kts 357°
2026-05-08 15:28 18.00392 -63.25992 1619 ft 186 kts 11°
2026-05-08 15:29 18.01583 -63.25549 1620 ft 180 kts 38°
2026-05-08 15:29 18.02387 -63.24583 1620 ft 173 kts 66°
2026-05-08 15:29 18.02610 -63.23344 1637 ft 173 kts 89°
2026-05-08 15:29 18.02651 -63.22067 1556 ft 175 kts 84°
2026-05-08 15:30 18.02766 -63.20786 1162 ft 183 kts 83°
2026-05-08 15:30 18.02899 -63.19487 874 ft 171 kts 83°
2026-05-08 15:30 18.03034 -63.18290 703 ft 158 kts 83°
2026-05-08 15:30 18.03173 -63.17159 714 ft 154 kts 83°
2026-05-08 15:31 18.03327 -63.16052 665 ft 153 kts 82°
2026-05-08 15:31 18.03495 -63.14945 570 ft 156 kts 81°
2026-05-08 15:31 18.03658 -63.13804 422 ft 155 kts 81°
2026-05-08 15:31 18.03842 -63.12698 171 ft 154 kts 82°
2026-05-08 15:32 18.03995 -63.11612 25 ft 143 kts 83°
2026-05-08 15:32 18.04101 -63.10783 16 ft 73 kts 82°
2026-05-08 15:32 18.04167 -63.10330 19 ft 60 kts 82°
2026-05-08 15:32 18.04229 -63.09989 15 ft 39 kts 62°
2026-05-08 15:33 18.04242 -63.09857 13 ft 8 kts 201°
2026-05-08 15:33 18.04233 -63.09959 14 ft 29 kts 259°
2026-05-08 15:33 18.04176 -63.10313 19 ft 68 kts 259°
2026-05-08 15:33 18.04098 -63.10846 16 ft 64 kts 261°
2026-05-08 15:34 18.04058 -63.11194 19 ft 34 kts 264°
2026-05-08 15:34 18.04124 -63.11275 19 ft 14 kts 341°
2026-05-08 15:34 18.04278 -63.11353 22 ft 20 kts 347°
2026-05-08 15:34 18.04327 -63.11361 23 ft 0 kts 352°